Vertical_Velocity
-0 -1 -1 -1 -1 0 0 -0 -1 -1 0 -0 -1 -1 -1 -1 -1 -0 -1 -1 -0 -1 -0 -0 -1 -0 -2 -0 0 1 1 1 -0 -0 -0 -0 -2 -1 -1 -0 -1 0 -1 0 -1 0 -0
0 -1 -2 0 -2 -1 -0 -0 -0 1 0 -1 -1 -1 -1 -1 -1 0 -1 -0 0 -1 -0 -0 -1 0 3 -2 0 0 1 1 -1 0 1 0 1 1 -1 -0 -1 -0 0 -3 -2 -1 -1
-0 -2 -0 -0 -1 0 -0 -0 0 -0 -1 -1 -1 -0 -1 -2 -1 -0 -0 0 -1 -1 -2 -1 -2 -1 -2 1 2 -0 1 0 -1 -1 -2 -1 0 0 1 -0 0 1 -2 -3 0 0 -2
-0 -1 -1 -0 -0 -0 -1 -1 -1 -1 -1 -1 -1 -1 -1 -1 -1 -0 -2 -2 -2 -1 0 0 1 -0 -1 -1 1 1 1 -1 -0 1 1 1 -0 0 -0 0 -1 -1 -2 -2 -2 0 -1
-2 -1 -1 -1 -1 -1 -1 -1 -2 -1 -2 -1 -1 -2 -1 -2 -2 -0 -1 -1 -0 -0 -1 -2 -1 -1 -1 -1 -1 -0 2 1 -1 -1 -2 -2 -1 -0 -1 -2 -4 -2 -1 1 -8 -0 -1
-1 -2 -2 -1 0 -0 -0 -1 -2 -1 -1 -1 -1 -1 -1 -0 0 0 0 -0 -2 -1 -2 -0 1 -2 -1 0 -0 0 -2 1 1 -0 1 -1 -1 -2 -1 -2 -5 -2 0 -0 -1 -2 1
-1 -1 -1 -1 -1 -0 -1 -2 -2 -1 -0 -1 -1 -1 -2 -2 -2 -1 3 -1 -0 -0 1 -1 -1 -1 2 3 -2 0 4 -0 -1 -1 -1 -0 -4 -2 -4 -2 0 0 1 0 -2 -2 1
-2 -1 -1 -0 -1 -1 -1 -1 -0 -0 -1 -1 -2 -2 -1 -1 -2 -2 -3 -1 2 4 -9 2 2 0 -0 0 -1 1 1 1 -0 -1 0 -5 -3 -3 -0 0 1 1 0 -4 -5 -0 1
-1 -2 -2 -2 -1 -0 -1 -1 -1 -1 -1 -0 -0 -0 -1 -0 -1 -2 -3 -1 1 -3 0 -4 1 -0 -0 2 -1 -0 0 1 -1 1 -0 -3 -6 -0 -1 1 2 -0 -1 -1 -3 -1 -1
-1 -0 -3 -1 -2 -1 -1 -1 -2 -0 -2 -1 -1 -0 -1 -2 -0 1 -0 -0 -0 2 -7 -6 -1 1 1 1 -1 0 1 2 -0 -2 -0 -2 -4 0 1 -0 -2 2 -2 1 1 -1 -4
-3 -1 -1 -2 -2 -2 -2 -1 -1 1 -0 -2 -2 -1 -1 0 -0 -1 -0 3 -0 -1 -10 -9 -1 -1 -0 -0 0 0 1 0 -0 -1 -4 -18 -0 1 1 -7 -2 -13 -0 -1 -0 0 -1
1 -1 -2 -2 -1 -2 -1 -1 -1 -1 -1 -3 -1 -2 -3 -3 -2 0 -1 1 1 -24 -15 -3 -0 -1 -2 0 0 1 0 1 2 1 0 -4 -0 1 -7 -2 -2 -0 -1 -1 -1 -2 -2
-2 -1 -2 -2 -1 -1 -0 -2 0 -1 -1 -1 -2 -1 -1 -1 -1 0 0 -1 -18 -11 -12 -6 -2 -1 0 -1 -1 0 -0 -1 -2 -3 -2 -3 -2 -2 0 0 1 0 -3 -4 -5 -3 -8
-2 -1 -2 -1 -1 -0 -1 -0 -1 -3 0 -2 -2 -2 -1 -1 -2 -3 -2 -11 -5 -4 0 -1 0 -2 1 1 -1 0 0 -1 -1 1 -0 -1 -19 -1 -1 -4 -6 -2 -7 -7 -3 -2 -5
0 -2 -1 -1 0 -1 -1 -1 -1 -2 -3 -0 1 -0 -2 0 0 2 -1 -6 -6 0 1 0 -6 -2 -2 -1 -1 -2 0 -1 -0 -2 -4 0 -7 -2 1 -1 -7 -3 -1 -8 -1 -1 -2
-0 -1 -1 -0 -3 0 -1 -2 -1 -1 -4 -1 1 -0 -3 -2 -2 -2 -10 -1 0 0 0 -2 0 -1 0 -1 -3 -1 -1 1 -2 0 1 -6 -4 -3 -2 0 -2 -6 -5 -6 -2 -1 -0
-1 -1 -0 -0 -0 -1 -2 -5 1 -2 -3 -1 1 -0 -2 -0 -0 -4 -4 -1 0 2 1 0 0 -0 0 1 1 -1 -5 3 -1 -4 1 1 -1 -16 1 -2 -5 -2 -0 0 -4 -3 -1
-2 -2 -1 0 -2 -3 -3 0 -3 -3 -0 0 -1 -5 -2 -1 -10 1 -1 1 2 1 -2 -1 -2 0 1 0 0 1 1 1 2 5 -0 -2 2 -1 -10 -6 -1 -1 -3 -3 -0 -6 -1
-4 3 -3 -1 -4 1 -1 -4 -6 -4 -3 -1 -1 -0 -3 -2 -4 -1 -2 -0 0 -4 1 -1 1 -1 0 1 -1 1 -0 3 -1 -1 6 -1 -5 -2 -15 -10 -3 1 -1 -0 0 -1 -3
-1 -0 -3 -0 -2 2 -3 -6 -3 -0 -1 -2 -1 -6 -4 -9 1 -2 -0 0 -1 -0 -0 0 2 -3 -3 -2 -1 -1 -2 -3 -4 3 1 -1 0 2 -6 -7 0 -0 -1 -1 1 3 -2
-1 -0 -2 -2 -3 1 -4 -1 -3 -2 -2 -2 -3 -0 -0 -2 -3 -1 -2 -0 -0 -3 0 -2 1 -1 1 1 -1 -0 -2 -9 -4 -4 -2 1 1 4 -4 0 1 2 0 -1 3 -4 6
-1 -3 -2 0 -1 -1 -5 -3 -5 -6 -3 -6 -3 -2 0 0 0 -2 -1 1 -0 -2 3 1 -2 -1 1 0 0 -0 5 1 -0 -9 3 0 -9 3 -6 -3 3 1 -1 0 0 -1 -0
-0 -4 0 0 -1 -1 -4 -5 -6 -7 -5 -6 -2 -2 -0 2 -0 -3 -0 -0 1 0 -1 2 2 2 1 -1 3 -3 1 -2 1 7 -1 7 5 4 -14 1 1 0 2 0 1 -0 3
-3 -3 -1 -3 -2 -3 -2 -2 -3 -6 -10 -7 -3 -3 -3 1 -1 -1 -0 0 0 0 -1 -6 -1 2 -7 -1 -4 -2 3 2 5 -3 -1 -0 3 3 -5 1 4 9 1 0 -2 3 -0
-0 -1 -0 -4 2 3 -3 -5 -4 -6 -7 -9 -5 -3 -3 0 -0 1 -0 0 -0 0 -0 1 -2 6 4 3 1 -1 -4 -5 0 -1 1 1 1 -0 3 -1 1 -4 -3 2 3 7 4
-2 -1 -4 3 2 -4 -4 -1 -1 -3 -5 -6 -6 -6 -4 -6 -5 -1 -0 1 -0 -0 -6 -3 -3 -0 -2 1 1 1 -0 0 -4 -6 -0 -0 0 1 -1 2 2 6 -4 4 2 3 3
-3 -1 2 0 -2 0 -1 -0 -0 -1 -2 -5 -5 -3 -4 -2 -1 -2 -3 -2 1 1 -0 -1 -5 -5 2 -0 1 1 -1 1 -1 0 -2 -1 -1 0 -1 0 4 2 -0 5 -5 8 -0
1 -1 -3 -2 -1 1 -0 -0 1 -1 -3 -2 -3 -5 -2 -0 -2 -1 3 -1 -0 0 -0 -4 -7 -2 -2 -1 2 -0 0 -1 1 -1 2 2 2 -0 -1 0 0 -2 -7 -10 7 -5 2
-2 -4 -1 -0 -2 -1 0 -1 -4 -2 1 1 -2 -3 1 0 -1 3 2 2 1 4 7 -1 -0 -1 -2 -1 -1 0 -0 -0 -1 -3 -3 -3 3 2 5 6 6 7 -0 3 2 4 -3
Height
1545 1544 1543 1542 1541 1540 1539 1537 1536 1534 1532 1530 1529 1527 1525 1522 1520 1517 1515 1513 1510 1508 1506 1503 1502 1501 1500 1500 1499 1499 1500 1500 1500 1499 1498 1497 1496 1497 1499 1500 1500 1500 1497 1496 1494 1493 1493
1545 1545 1544 1543 1542 1541 1539 1538 1536 1534 1532 1530 1528 1526 1524 1521 1519 1516 1514 1511 1509 1506 1503 1502 1500 1499 1499 1500 1498 1498 1499 1499 1499 1499 1498 1498 1498 1497 1497 1497 1498 1497 1496 1493 1490 1490 1491
1546 1545 1545 1543 1542 1541 1539 1537 1535 1533 1531 1529 1527 1525 1522 1520 1517 1515 1512 1510 1507 1504 1502 1500 1498 1497 1498 1499 1497 1497 1498 1498 1498 1498 1498 1499 1498 1499 1499 1498 1497 1496 1498 1491 1485 1485 1487
1546 1545 1544 1543 1542 1540 1538 1536 1534 1532 1530 1528 1525 1523 1520 1517 1515 1513 1510 1507 1505 1502 1500 1498 1497 1497 1496 1496 1497 1497 1497 1497 1498 1498 1498 1498 1497 1498 1498 1499 1499 1499 1499 1499 1485 1486 1486
1546 1545 1544 1542 1541 1539 1536 1534 1532 1530 1528 1526 1523 1520 1518 1515 1513 1511 1508 1505 1502 1499 1498 1496 1497 1496 1496 1496 1496 1496 1497 1497 1497 1497 1497 1497 1497 1498 1500 1502 1505 1504 1506 1504 1494 1484 1486
1546 1545 1543 1541 1540 1538 1535 1533 1531 1529 1526 1523 1521 1517 1515 1512 1509 1508 1505 1502 1499 1497 1497 1496 1496 1498 1497 1497 1496 1496 1496 1498 1498 1498 1498 1498 1498 1500 1503 1505 1510 1501 1505 1500 1498 1486 1486
1545 1544 1543 1541 1539 1537 1534 1532 1529 1527 1524 1521 1518 1515 1512 1510 1508 1505 1504 1501 1501 1499 1496 1496 1496 1496 1496 1496 1496 1496 1495 1496 1497 1497 1499 1498 1501 1501 1496 1497 1494 1494 1497 1496 1488 1483 1485
1544 1543 1541 1539 1537 1534 1532 1529 1527 1524 1522 1519 1516 1513 1511 1508 1505 1504 1503 1501 1501 1503 1496 1493 1492 1492 1493 1495 1496 1495 1496 1497 1497 1499 1499 1502 1500 1488 1489 1492 1495 1495 1498 1497 1486 1481 1486
1544 1542 1540 1538 1535 1533 1531 1528 1526 1523 1520 1518 1515 1512 1509 1506 1504 1503 1502 1502 1501 1501 1500 1494 1492 1491 1492 1494 1494 1494 1496 1495 1496 1498 1499 1501 1487 1486 1488 1488 1492 1492 1495 1491 1489 1481 1481
1542 1541 1539 1537 1534 1531 1529 1527 1524 1522 1519 1517 1513 1511 1508 1505 1506 1502 1502 1502 1501 1501 1508 1497 1494 1494 1494 1493 1495 1494 1495 1497 1496 1495 1496 1496 1485 1485 1486 1488 1489 1494 1483 1482 1484 1488 1496
1541 1539 1537 1535 1533 1531 1529 1526 1524 1521 1518 1516 1513 1510 1507 1504 1503 1504 1505 1502 1501 1502 1535 1498 1495 1495 1494 1496 1495 1495 1495 1496 1495 1493 1495 1489 1484 1484 1487 1483 1482 1482 1476 1480 1481 1487 1491
1540 1538 1536 1534 1532 1530 1528 1526 1523 1521 1518 1515 1513 1510 1507 1506 1504 1504 1503 1502 1502 1518 1531 1498 1496 1495 1495 1494 1494 1494 1495 1497 1494 1493 1491 1488 1483 1483 1477 1472 1475 1474 1476 1481 1488 1490 1503
1539 1537 1536 1534 1531 1529 1527 1525 1523 1520 1517 1514 1511 1509 1507 1505 1505 1503 1503 1504 1520 1531 1503 1507 1504 1500 1499 1494 1492 1494 1496 1497 1498 1499 1494 1485 1480 1474 1473 1474 1472 1474 1483 1502 1501 1503 1485
1538 1537 1535 1533 1532 1530 1527 1525 1522 1519 1516 1513 1511 1509 1508 1506 1504 1503 1504 1507 1520 1513 1510 1508 1505 1503 1502 1499 1494 1495 1497 1499 1491 1493 1498 1499 1481 1473 1470 1471 1472 1477 1480 1498 1483 1495 1476
1537 1535 1534 1533 1531 1529 1527 1524 1521 1518 1515 1512 1510 1508 1507 1506 1505 1504 1505 1528 1520 1514 1514 1513 1505 1504 1505 1501 1503 1499 1498 1496 1490 1491 1493 1496 1484 1469 1468 1467 1469 1473 1479 1469 1473 1479 1497
1536 1535 1534 1532 1530 1527 1526 1523 1520 1516 1514 1511 1509 1507 1507 1506 1504 1505 1510 1517 1515 1514 1513 1512 1512 1508 1508 1508 1507 1504 1500 1499 1499 1493 1492 1488 1490 1469 1465 1466 1465 1468 1466 1475 1481 1474 1474
1535 1534 1533 1531 1529 1527 1524 1522 1519 1515 1513 1510 1508 1507 1508 1506 1506 1506 1520 1518 1516 1515 1514 1514 1514 1513 1512 1513 1509 1508 1501 1507 1504 1497 1492 1489 1489 1473 1469 1468 1465 1470 1469 1467 1469 1471 1462
1534 1533 1532 1530 1528 1526 1523 1520 1517 1515 1512 1509 1507 1509 1508 1506 1509 1514 1519 1518 1517 1516 1515 1516 1516 1517 1518 1518 1515 1510 1505 1510 1510 1507 1509 1498 1493 1490 1469 1461 1457 1457 1459 1462 1469 1461 1467
1534 1532 1531 1530 1527 1525 1523 1520 1516 1514 1511 1508 1508 1509 1509 1506 1518 1522 1520 1519 1519 1519 1521 1519 1517 1518 1522 1522 1521 1512 1511 1510 1509 1511 1513 1507 1494 1492 1471 1462 1456 1457 1457 1457 1461 1458 1458
1534 1532 1531 1529 1527 1524 1522 1519 1517 1513 1510 1509 1509 1513 1511 1511 1519 1522 1523 1524 1524 1523 1523 1524 1523 1522 1523 1525 1522 1518 1515 1511 1509 1510 1509 1505 1496 1486 1480 1469 1471 1465 1462 1461 1464 1466 1460
1534 1532 1531 1529 1527 1524 1521 1519 1516 1513 1510 1510 1511 1519 1521 1526 1525 1526 1526 1528 1528 1528 1525 1525 1526 1530 1530 1528 1524 1521 1518 1513 1510 1509 1508 1508 1504 1494 1483 1479 1477 1468 1462 1460 1461 1458 1456
1532 1532 1532 1530 1528 1524 1522 1519 1516 1513 1511 1510 1515 1520 1523 1526 1527 1527 1530 1534 1532 1534 1532 1530 1531 1530 1529 1528 1526 1521 1521 1520 1514 1506 1504 1502 1498 1492 1484 1477 1471 1462 1459 1458 1455 1454 1450
1532 1532 1532 1531 1528 1526 1523 1521 1516 1514 1512 1513 1518 1521 1523 1530 1530 1531 1535 1534 1533 1533 1531 1530 1530 1529 1527 1524 1522 1518 1514 1508 1504 1506 1505 1505 1499 1495 1485 1479 1470 1466 1469 1463 1469 1469 1466
1532 1533 1532 1531 1530 1527 1525 1524 1521 1518 1518 1518 1519 1521 1523 1531 1531 1532 1534 1534 1533 1533 1533 1528 1527 1527 1525 1520 1516 1511 1505 1498 1498 1499 1502 1501 1494 1489 1482 1480 1481 1479 1472 1472 1473 1474 1472
1533 1534 1532 1532 1531 1528 1527 1526 1525 1523 1523 1523 1523 1522 1524 1531 1532 1533 1533 1532 1531 1530 1529 1528 1526 1525 1520 1517 1514 1509 1504 1498 1495 1495 1493 1489 1487 1483 1478 1473 1474 1476 1477 1477 1476 1480 1481
1533 1533 1534 1533 1531 1530 1529 1529 1528 1527 1526 1526 1525 1525 1526 1529 1532 1531 1532 1532 1533 1531 1528 1525 1523 1520 1518 1516 1513 1510 1508 1502 1499 1495 1488 1487 1487 1488 1476 1472 1463 1484 1478 1467 1466 1478 1486
1532 1534 1534 1533 1532 1532 1531 1531 1530 1529 1528 1529 1528 1527 1527 1529 1529 1531 1531 1532 1532 1532 1531 1526 1524 1520 1518 1517 1512 1509 1508 1506 1507 1506 1497 1493 1489 1488 1484 1481 1479 1491 1480 1467 1473 1495 1490
1532 1532 1534 1533 1533 1532 1532 1533 1531 1531 1531 1531 1530 1530 1529 1528 1527 1527 1529 1529 1530 1530 1529 1525 1524 1522 1520 1519 1514 1513 1516 1508 1509 1502 1498 1499 1499 1496 1489 1489 1482 1493 1481 1487 1504 1497 1494
1531 1533 1533 1533 1532 1532 1532 1532 1532 1532 1532 1531 1530 1530 1529 1529 1527 1525 1524 1525 1526 1526 1525 1524 1523 1522 1519 1521 1518 1514 1511 1509 1509 1507 1498 1503 1511 1504 1503 1499 1507 1503 1503 1505 1502 1498 1492